Location: Nickerson Gardens
(33.9320°N, 118.2484°W)
Time: 08:38:54
(UTC+00:00)

Cosmos 1726 Rocket - Pass Details

Date: 29 October 2020
Orbit: 603 x 629 km, 82.5° (Epoch: 28 November)

Event Time Altitude Azimuth Distance (km) Brightness Sun altitude
Rises 12:58:22 0° 347° (NNW) 2,919 6.8 -15.5°
Reaches altitude 10° 13:00:39 10° 342° (NNW) 2,010 5.9 -15.0°
Maximum altitude 13:04:58 51° 267° (W) 791 3.7 -14.1°
Drops below altitude 10° 13:09:16 10° 192° (SSW) 1,996 6.1 -13.2°
Sets 13:11:31 0° 187° (S) 2,898 7.0 -12.8°
